This is the latest recevied weather packets stored in our database for station/object WK7G. If no packets are shown the sender has not sent any weather packets the latest 10 day(s).
| Time | Temp. | Humidity | Pressure | Rain* | Wind** | Luminosity | Snow |
|---|---|---|---|---|---|---|---|
| 1777972854 | 6.67° C | 63% | 1004.5 hPa | 0 mm | - | 0 W/m² | - |
| 1777972550 | 7.22° C | 61% | 1004.5 hPa | 0 mm | - | 0 W/m² | - |
| 1777972249 | 7.22° C | 60% | 1004.6 hPa | 0 mm | - | 0 W/m² | - |
| 1777971946 | 6.67° C | 64% | 1004.6 hPa | 0 mm | - | 0 W/m² | - |
| 1777971644 | 7.22° C | 64% | 1004.4 hPa | 0 mm | - | 0 W/m² | - |
| 1777971342 | 7.22° C | 62% | 1004.5 hPa | 0 mm | - | 0 W/m² | - |
| 1777971040 | 7.22° C | 63% | 1004.4 hPa | 0 mm | - | 0 W/m² | - |
| 1777970737 | 7.22° C | 60% | 1004.5 hPa | 0 mm | - | 0 W/m² | - |
| 1777970435 | 7.78° C | 62% | 1004.6 hPa | 0 mm | - | 0 W/m² | - |
| 1777970132 | 7.78° C | 60% | 1004.5 hPa | 0 mm | - | 0 W/m² | - |
| 1777969829 | 7.78° C | 59% | 1004.6 hPa | 0 mm | - | 0 W/m² | - |
| 1777969524 | 7.22° C | 62% | 1004.3 hPa | 0 mm | - | 0 W/m² | - |
| 1777969221 | 6.67° C | 65% | 1004.3 hPa | 0 mm | - | 0 W/m² | - |
| 1777968918 | 7.22° C | 66% | 1004.3 hPa | 0 mm | - | 0 W/m² | - |
| 1777968615 | 7.22° C | 65% | 1004.4 hPa | 0 mm | - | 0 W/m² | - |
| 1777968311 | 7.78° C | 63% | 1004.4 hPa | 0 mm | - | 0 W/m² | - |
| 1777968007 | 7.22° C | 62% | 1004.4 hPa | 0 mm | - | 0 W/m² | - |
| 1777967704 | 6.67° C | 63% | 1004.6 hPa | 0 mm | - | 0 W/m² | - |
| 1777967401 | 7.22° C | 66% | 1004.5 hPa | 0 mm | - | 0 W/m² | - |
| 1777967098 | 7.22° C | 64% | 1004.4 hPa | 0 mm | - | 0 W/m² | - |
| 1777966795 | 7.22° C | 64% | 1004.4 hPa | 0 mm | - | 0 W/m² | - |
| 1777966493 | 7.22° C | 64% | 1004.2 hPa | 0 mm | - | 0 W/m² | - |
| 1777966190 | 7.22° C | 64% | 1004.5 hPa | 0 mm | - | 0 W/m² | - |
| 1777965886 | 7.22° C | 67% | 1004.5 hPa | 0 mm | - | 0 W/m² | - |
| 1777965582 | 6.67° C | 66% | 1004.4 hPa | 0 mm | - | 0 W/m² | - |
* Rain latest hour (hover to see other rain measurements)
** Current wind speed in m/s (hover to see current wind gust speed)